TimeCST,TemperatureF,Dew PointF,Humidity,Sea Level PressureIn,VisibilityMPH,Wind Direction,Wind SpeedMPH,Gust SpeedMPH,PrecipitationIn,Events,Conditions,WindDirDegrees,DateUTC
12:15 AM,32.0,28.4,87,30.39,10.0,East,3.5,-,N/A,,Clear,90,2013-03-08 06:15:00
12:35 AM,32.0,28.4,87,30.39,10.0,East,3.5,-,N/A,,Clear,80,2013-03-08 06:35:00
12:55 AM,32.0,28.4,87,30.39,10.0,East,3.5,-,N/A,,Clear,90,2013-03-08 06:55:00
1:15 AM,32.4,28.4,85,30.40,10.0,East,3.5,-,N/A,,Clear,100,2013-03-08 07:15:00
1:35 AM,32.0,28.4,87,30.41,10.0,East,3.5,-,N/A,,Clear,100,2013-03-08 07:35:00
1:55 AM,32.0,28.4,87,30.40,10.0,East,3.5,-,N/A,,Clear,80,2013-03-08 07:55:00
2:15 AM,32.0,28.4,87,30.39,10.0,East,4.6,-,N/A,,Clear,90,2013-03-08 08:15:00
2:35 AM,32.0,28.4,87,30.39,10.0,East,4.6,-,N/A,,Clear,90,2013-03-08 08:35:00
2:55 AM,32.0,28.4,87,30.40,10.0,East,3.5,-,N/A,,Clear,80,2013-03-08 08:55:00
3:15 AM,32.0,28.4,87,30.40,10.0,Calm,Calm,-,N/A,,Clear,0,2013-03-08 09:15:00
3:35 AM,31.8,28.4,87,30.40,10.0,Calm,Calm,-,N/A,,Clear,0,2013-03-08 09:35:00
3:55 AM,30.9,28.8,92,30.41,7.0,Calm,Calm,-,N/A,,Clear,0,2013-03-08 09:55:00
4:15 AM,30.0,28.4,94,30.41,7.0,Calm,Calm,-,N/A,,Clear,0,2013-03-08 10:15:00
4:35 AM,30.0,28.8,95,30.41,7.0,East,3.5,-,N/A,,Clear,80,2013-03-08 10:35:00
4:55 AM,30.7,28.4,91,30.42,10.0,Calm,Calm,-,N/A,,Clear,0,2013-03-08 10:55:00
5:15 AM,30.7,28.4,91,30.41,7.0,East,4.6,-,N/A,,Clear,80,2013-03-08 11:15:00
5:35 AM,30.9,28.4,90,30.42,7.0,East,3.5,-,N/A,,Clear,100,2013-03-08 11:35:00
5:55 AM,31.1,28.4,90,30.43,10.0,East,3.5,-,N/A,,Clear,100,2013-03-08 11:55:00
6:15 AM,30.9,28.2,90,30.43,7.0,East,3.5,-,N/A,,Clear,90,2013-03-08 12:15:00
6:35 AM,30.7,28.2,90,30.44,7.0,East,3.5,-,N/A,,Clear,90,2013-03-08 12:35:00
6:55 AM,31.1,28.4,90,30.44,7.0,East,3.5,-,N/A,,Clear,90,2013-03-08 12:55:00
7:15 AM,31.8,28.6,88,30.43,7.0,East,4.6,-,N/A,,Clear,90,2013-03-08 13:15:00
7:35 AM,32.4,28.9,87,30.43,7.0,East,4.6,-,N/A,,Clear,90,2013-03-08 13:35:00
7:55 AM,33.8,29.3,84,30.44,10.0,East,4.6,-,N/A,,Clear,100,2013-03-08 13:55:00
8:15 AM,34.9,29.3,80,30.44,10.0,ESE,6.9,-,N/A,,Clear,120,2013-03-08 14:15:00
8:35 AM,35.6,29.7,79,30.45,10.0,ESE,8.1,-,N/A,,Clear,120,2013-03-08 14:35:00
8:55 AM,36.7,30.2,77,30.45,10.0,ESE,6.9,-,N/A,,Clear,120,2013-03-08 14:55:00
9:15 AM,37.6,30.2,75,30.46,10.0,ESE,9.2,-,N/A,,Clear,110,2013-03-08 15:15:00
9:35 AM,38.3,30.2,73,30.46,10.0,SE,10.4,16.1,N/A,,Clear,140,2013-03-08 15:35:00
9:55 AM,39.6,31.5,73,30.46,10.0,ESE,5.8,-,N/A,,Clear,120,2013-03-08 15:55:00
10:15 AM,40.1,30.4,68,30.46,10.0,ESE,9.2,-,N/A,,Clear,110,2013-03-08 16:15:00
10:35 AM,41.0,31.6,69,30.45,10.0,ESE,9.2,-,N/A,,Clear,120,2013-03-08 16:35:00
10:55 AM,41.5,31.6,68,30.45,10.0,ESE,5.8,9.2,N/A,,Clear,110,2013-03-08 16:55:00
11:15 AM,42.8,32.0,66,30.44,10.0,SE,9.2,-,N/A,,Clear,130,2013-03-08 17:15:00
11:35 AM,43.5,32.9,66,30.44,10.0,SSE,8.1,-,N/A,,Clear,160,2013-03-08 17:35:00
11:55 AM,44.1,32.5,64,30.42,10.0,East,8.1,-,N/A,,Clear,80,2013-03-08 17:55:00
12:15 PM,44.8,33.3,64,30.41,10.0,ESE,6.9,-,N/A,,Clear,120,2013-03-08 18:15:00
12:35 PM,45.9,34.0,63,30.39,10.0,ESE,9.2,16.1,N/A,,Clear,110,2013-03-08 18:35:00
12:55 PM,46.2,34.2,63,30.38,10.0,ESE,9.2,-,N/A,,Clear,110,2013-03-08 18:55:00
1:15 PM,47.5,34.0,59,30.37,10.0,ESE,8.1,-,N/A,,Clear,110,2013-03-08 19:15:00
1:35 PM,48.2,34.2,58,30.35,10.0,East,9.2,-,N/A,,Clear,90,2013-03-08 19:35:00
1:55 PM,48.7,34.9,59,30.34,10.0,ESE,6.9,-,N/A,,Clear,120,2013-03-08 19:55:00
2:15 PM,49.1,34.3,57,30.34,10.0,East,10.4,16.1,N/A,,Clear,100,2013-03-08 20:15:00
2:35 PM,49.3,34.5,57,30.34,10.0,SE,6.9,-,N/A,,Clear,130,2013-03-08 20:35:00
2:55 PM,50.0,33.6,53,30.33,10.0,East,5.8,-,N/A,,Clear,100,2013-03-08 20:55:00
3:15 PM,50.2,32.7,51,30.33,10.0,SE,8.1,16.1,N/A,,Clear,130,2013-03-08 21:15:00
3:35 PM,50.4,32.9,51,30.33,10.0,East,8.1,-,N/A,,Clear,100,2013-03-08 21:35:00
3:55 PM,50.5,33.6,52,30.33,10.0,East,6.9,-,N/A,,Clear,90,2013-03-08 21:55:00
4:15 PM,50.9,32.9,50,30.33,10.0,ESE,4.6,-,N/A,,Clear,120,2013-03-08 22:15:00
4:35 PM,50.5,31.8,49,30.32,10.0,SE,8.1,-,N/A,,Clear,130,2013-03-08 22:35:00
4:55 PM,50.5,32.2,49,30.32,10.0,ESE,8.1,-,N/A,,Clear,120,2013-03-08 22:55:00
5:15 PM,49.6,31.8,50,30.32,10.0,ESE,5.8,-,N/A,,Clear,120,2013-03-08 23:15:00
5:35 PM,49.8,32.2,51,30.32,10.0,ESE,5.8,-,N/A,,Clear,120,2013-03-08 23:35:00
5:55 PM,48.7,32.9,54,30.32,10.0,ESE,4.6,-,N/A,,Clear,120,2013-03-08 23:55:00
6:15 PM,48.2,32.9,55,30.32,10.0,Calm,Calm,-,N/A,,Clear,0,2013-03-09 00:15:00
6:35 PM,47.3,32.9,57,30.33,10.0,Calm,Calm,-,N/A,,Clear,0,2013-03-09 00:35:00
6:55 PM,46.4,32.0,57,30.32,10.0,East,3.5,-,N/A,,Clear,90,2013-03-09 00:55:00
7:15 PM,45.5,32.9,61,30.32,10.0,East,3.5,-,N/A,,Clear,90,2013-03-09 01:15:00
7:35 PM,45.1,32.2,60,30.31,10.0,East,3.5,-,N/A,,Clear,90,2013-03-09 01:35:00
7:55 PM,44.6,32.0,61,30.31,10.0,East,5.8,-,N/A,,Clear,90,2013-03-09 01:55:00
8:15 PM,45.0,32.9,63,30.30,10.0,East,4.6,-,N/A,,Clear,100,2013-03-09 02:15:00
8:35 PM,45.0,33.1,63,30.30,10.0,East,3.5,-,N/A,,Clear,100,2013-03-09 02:35:00
8:55 PM,44.6,33.8,66,30.31,10.0,SE,3.5,-,N/A,,Clear,130,2013-03-09 02:55:00
9:15 PM,44.1,33.8,67,30.30,10.0,East,6.9,-,N/A,,Clear,80,2013-03-09 03:15:00
9:35 PM,44.2,33.4,66,30.30,10.0,East,6.9,-,N/A,,Clear,90,2013-03-09 03:35:00
9:55 PM,44.6,33.1,64,30.31,10.0,ESE,4.6,-,N/A,,Clear,120,2013-03-09 03:55:00
10:15 PM,44.6,32.9,64,30.30,10.0,ESE,3.5,-,N/A,,Clear,110,2013-03-09 04:15:00
10:35 PM,44.6,33.1,64,30.30,10.0,East,5.8,-,N/A,,Scattered Clouds,100,2013-03-09 04:35:00
10:55 PM,44.4,33.1,64,30.29,10.0,East,5.8,-,N/A,,Overcast,100,2013-03-09 04:55:00
11:15 PM,44.2,32.7,64,30.29,10.0,ESE,4.6,-,N/A,,Scattered Clouds,120,2013-03-09 05:15:00
11:35 PM,44.1,32.9,65,30.26,10.0,East,8.1,-,N/A,,Clear,90,2013-03-09 05:35:00
11:55 PM,44.1,32.4,63,30.25,10.0,ESE,5.8,-,N/A,,Clear,110,2013-03-09 05:55:00